Regional Weather Roundup
Issued by NWS Boston, MA

Current Version | Previous Version | Text Only | Print | Product List | Glossary Off
Versions: 1 2 3 4 5 6 7 8 9 10 11 12 13 14 15 16 17 18 19 20 21 22 23 24 25 26 27 28 29 30 31 32 33 34 35 36 37 38 39 40 41 42 43 44 45 46 47 48 49
000 ASUS41 KBOX 281904 RWRBOX REGIONAL WEATHER ROUNDUP NATIONAL WEATHER SERVICE BOSTON/NORTON MA 300 PM EDT THU MAY 28 2020 NOTE: "FAIR" INDICATES FEW OR NO CLOUDS BELOW 12,000 FEET WITH NO SIGNIFICANT WEATHER AND/OR OBSTRUCTIONS TO VISIBILITY. MAZALL-282000- EASTERN MASSACHUSETTS CITY SKY/WX TMP DP RH WIND PRES REMARKS BOSTON PTSUNNY 76 66 71 S15G23 30.15S BEVERLY CLOUDY 79 67 66 SW15 30.13F LAWRENCE CLOUDY 79 67 66 SW13G23 30.15S BEDFORD PTSUNNY 80 67 64 SW14G20 30.13F BLUE HILL NOT AVBL NORWOOD CLOUDY 78 65 63 SW14G24 30.15F MARSHFIELD CLOUDY 81 66 61 S13G21 30.15F PLYMOUTH CLOUDY 78 64 61 SW16 30.17F TAUNTON CLOUDY 79 63 57 SW15G22 30.17F NEW BEDFORD CLOUDY 76 65 68 SW14G23 30.18F $$ MAZALL-282000- CAPE COD AND THE ISLANDS CITY SKY/WX TMP DP RH WIND PRES REMARKS FALMOUTH PTSUNNY 75 64 69 SW21G29 30.20F HYANNIS MOSUNNY 73 68 84 SW16G22 30.18F CHATHAM MOSUNNY 69 61 75 SW13G22 30.22F PROVINCETOWN CLOUDY 72 64 76 SW21 30.19S NANTUCKET MOSUNNY 63 58 83 S15 30.23F MARTHAS VNYRD CLOUDY 70 63 78 SW16 30.21F $$ MAZALL-282000- CENTRAL AND WESTERN MASSACHUSETTS CITY SKY/WX TMP DP RH WIND PRES REMARKS WORCESTER LGT RAIN 72 65 78 SW12 30.18F FITCHBURG CLOUDY 79 64 60 S18 30.15S ORANGE CLOUDY 76 65 68 S13G21 30.15F SPRINGFIELD CLOUDY 77 64 64 S10 30.13F WESTFIELD CLOUDY 78 66 66 S16 30.13F NORTH ADAMS CLOUDY 77 65 66 SW7 30.12F PITTSFIELD CLOUDY 75 65 70 SE10G21 30.13F $$ RIZALL-282000- RHODE ISLAND CITY SKY/WX TMP DP RH WIND PRES REMARKS PROVIDENCE CLOUDY 77 64 64 SW18G26 30.18F NEWPORT CLOUDY 71 63 75 S7 30.20F BLOCK ISLAND CLOUDY 69 63 81 S12 30.21F SMITHFIELD CLOUDY 75 66 73 VRB6 30.18F WESTERLY CLOUDY 72 61 68 S9 30.20F $$ CTZALL-282000- CONNECTICUT CITY SKY/WX TMP DP RH WIND PRES REMARKS BRADLEY INTL CLOUDY 76 65 68 S17G23 30.14F HARTFORD CLOUDY 77 67 71 S13 30.15F BRIDGEPORT CLOUDY 74 66 76 S12G20 30.16F DANBURY CLOUDY 71 67 87 S8 30.16F FOG GROTON CLOUDY 69 62 78 S7 30.19F NEW HAVEN CLOUDY 72 66 81 S5 30.17S CHESTER CLOUDY 77 68 73 S10G17 30.18F MERIDEN CLOUDY 75 65 70 S10 30.16F WILLIMANTIC CLOUDY 74 65 73 SW10G20 30.17F OXFORD CLOUDY 73 66 78 S14G20 30.18F $$ MEZ002-015-021-024-NHZ003-005-008-011-012-014-VTZ005-008-282000- NORTHERN NEW ENGLAND CITY SKY/WX TMP DP RH WIND PRES REMARKS PORTLAND ME MOSUNNY 77 63 61 S14G24 30.06F BANGOR ME PTSUNNY 79 63 57 S14 30.03F CONCORD NH CLOUDY 80 63 55 SW16 30.11F MANCHESTER NH PTSUNNY 81 63 54 SW13G18 30.10F NASHUA NH CLOUDY 81 66 60 W9 30.13F PORTSMOUTH NH PTSUNNY 84 64 51 SW14G22 30.09F JAFFREY NH CLOUDY 76 62 62 S13 30.16F KEENE NH CLOUDY 79 66 64 S15 30.12F BURLINGTON VT PTSUNNY 84 63 49 S14 30.01F MT. WASHINGTON PTSUNNY 61 52 72 W21G28 N/A $$ NYZ052-076-282000- EASTERN NEW YORK CITY SKY/WX TMP DP RH WIND PRES REMARKS ALBANY PTSUNNY 82 65 56 S16G29 30.07F NEW YORK CITY PTSUNNY 75 66 73 S17G29 30.12F $$ ANZALL-282000- MARINE OBSERVATIONS STATION/POSITION TIME TEMP WIND PRES VSBY WAVE AIR SEA DIR/SP/G HT/PER (UTC) (F) (DEG/KT/KT) (MB) (MI) (FT/S) BOSTON BUOY 1850 66 58 190/ 10/ 12 1020.1F 1/ 7 BUZZARDS BAY 1800 230/ 7/ 9 1024.4F NANTUCKET SOUND 1850 58 57 220/ 10/ 12 1022.6F 1 MASS BAY-STELLWA 1804 59 45 210/ 8/ 8 1019.1F 1 7/8 2/ 6 ISLE OF SHOALS 1800 70 200/ 25/ 26 1019.4F S OF BLOCK IS 1800 56 N/A 3/ 7 $$ ......................KEY......................... SKY/WX - SKY CONDITION/PRESENT WEATHER TMP - TEMPERATURE IN FAHRENHEIT DWPT - DEWPOINT IN FAHRENHEIT RH - RELATIVE HUMIDITY IN PERCENT WIND - DIRECTION AND SPEED IN MPH PRES - MEAN SEA LEVEL PRESSURE IN INCHES OF HG WCI - WIND CHILL INDEX VSB - VISIBILITY IN MILES HX - HEAT INDEX TC - TEMPERATURE IN CELSIUS VRB - VARIABLE WIND DIRECTION N/A - NOT AVAILABLE

USA.gov is the U.S. government's official web portal to all federal, state and local government web resources and services.